{"data":{"norad_id":59081,"intl_designator":"2024-041H","name":"STARLINK-31292","alt_names":[],"object_type":"PAYLOAD","status":"ACTIVE","operator":null,"country":"US","launch_date":"2024-02-29","launch_site_code":"AFETR","launch_vehicle":null,"mission":null,"orbit_class":"UNKNOWN","rcs_meters":null,"size_class":null,"mass_kg":null,"dimensions":null,"purposes":["comms"],"wikipedia_slug":null,"has_3d_model":false,"image_url":null,"decayed_at":null,"tle_current":{"epoch":"2026-05-24T23:45:02.234016Z","epoch_age_seconds":69873,"freshness":"FRESH","line1":"1 59081U 24041H   26144.98960919 -.00003575  00000+0 -12048-3 0  9991","line2":"2 59081  43.0026 239.5424 0001878 258.6128 101.4513 15.27569422125933","mean_motion":15.27569422,"eccentricity":0.0001878,"inclination_deg":43.0026,"raan_deg":239.5424,"arg_perigee_deg":258.6128,"mean_anomaly_deg":101.4513,"bstar":-0.00012048,"rev_number":12593,"period_min":94.267401485076,"perigee_km":481.79223386254,"apogee_km":484.36930725716,"semimajor_km":6861.2177705598,"source":"CELESTRAK","updated_at":"2026-05-25T13:38:18.828941Z"}}}